Tracking 19199 objects as of 25-Jun-2018
HD Live streaming from Space Station
objects crossing your sky now

FENGYUN 1C DEB

Track FENGYUN 1C DEB now!
10-day predictions


NORAD ID: 40686
Int'l Code: 1999-025EWS
Perigee: 694.1 km
Apogee: 712.6 km
Inclination: 99.2 °
Period: 98.7 minutes
Semi major axis: 7074 km
RCS: Unknown
Launch date: May 10, 1999
Source: People's Republic of China (PRC)
Launch site: Taiyaun Space Center, China (TSC)

Note: This is SATELLITE DEBRIS
aabbcc
Your satellite tracking list
Your tracking list is empty




NASA's NSSDC Master Catalog

Two Line Element Set (TLE):
1 40686U 99025EWS 18174.11143418  .00003018  00000-0  65322-3 0  9996
2 40686  99.2423 127.8006 0013078  79.1955 281.0713 14.59053416185198
Source of the keplerian elements: AFSPC